KI5NYZ Weather Reports


Display with metric or nautical units.
time (UTC)temp
F
wind
direction
speed
MPH
gust
MPH
rain 1hr
in
rain 24hr
in
rain mn
in
humidity
%
barometer
mb
20260906231022 95 181 3.0 7.0 0.02 0.11 0.11 32 1013.7
20260906230024 95 183 1.0 7.0 0.01 0.11 0.11 31 1013.7
20260906225020 94 157 2.0 6.0 0.02 0.11 0.11 31 1013.6
20260906224018 95 184 3.0 8.0 0.02 0.11 0.10 32 1013.6
20260906223020 94 187 2.0 7.0 0.02 0.11 0.10 31 1013.6
20260906222022 95 174 1.0 7.0 0.02 0.11 0.10 32 1013.8
20260906221020 95 179 3.0 6.0 0.02 0.10 0.10 30 1013.8
20260906220019 95 180 5.0 9.0 0.02 0.10 0.10 32 1014.0
20260906215019 96 118 2.0 5.0 0.02 0.10 0.09 31 1013.9
20260906214021 95 183 2.0 8.0 0.02 0.09 0.08 31 1014.1
20260906213026 96 168 2.0 9.0 0.03 0.09 0.08 32 1014.3
20260906212020 97 169 1.0 5.0 0.02 0.09 0.08 31 1014.4
20260906211022 97 152 2.0 9.0 0.02 0.09 0.08 30 1014.5
20260906210026 96 187 4.0 8.0 0.03 0.09 0.07 31 1014.7
20260906205023 94 184 3.0 9.0 0.02 0.08 0.06 33 1014.9
20260906204023 95 153 1.0 8.0 0.02 0.08 0.06 33 1015.1
20260906203022 94 183 3.0 8.0 0.02 0.08 0.06 34 1015.2
20260906202023 95 156 2.0 9.0 0.02 0.08 0.05 33 1015.3
20260906201041 95 190 4.0 8.0 0.03 0.08 0.05 31 1015.4
20260906200043 94 118 2.0 5.0 0.03 0.08 0.05 33 1015.4
20260906195028 95 178 3.0 7.0 0.03 0.08 0.05 33 1015.6
20260906194024 95 181 3.0 9.0 0.03 0.09 0.04 33 1015.6
20260906193046 94 144 1.0 6.0 0.03 0.08 0.04 34 1015.7
20260906192019 95 182 5.0 11.0 0.03 0.08 0.03 33 1015.8
20260906191024 94 130 1.0 4.0 0.02 0.07 0.02 33 1016.0
20260906190019 93 189 2.0 7.0 0.02 0.07 0.02 36 1016.1
20260906185027 93 177 2.0 8.0 0.01 0.08 0.02 36 1016.2
20260906184019 93 185 4.0 10.0 0.01 0.08 0.01 37 1016.3
20260906183023 94 138 1.0 5.0 0.01 0.07 0.01 34 1016.5
20260906182020 93 177 1.0 6.0 0.00 0.07 0.01 37 1016.7
20260906181020 92 118 1.0 3.0 0.00 0.07 0.00 38 1016.8
20260906180101 92 111 2.0 4.0 0.00 0.07 0.00 37 1016.9
20260906175041 91 181 2.0 8.0 0.00 0.07 0.00 38 1017.1
20260906174021 90 116 2.0 4.0 0.00 0.07 0.00 42 1017.2
20260906173104 92 112 2.0 4.0 0.00 0.07 0.00 40 1017.3
20260906172022 91 122 1.0 4.0 0.00 0.07 0.00 40 1017.3
20260906171023 91 347 1.0 4.0 0.00 0.07 0.00 41 1017.3
20260906170024 90 190 1.0 6.0 0.00 0.07 0.00 42 1017.3
20260906165020 89 210 3.0 7.0 0.00 0.07 0.00 43 1017.3
20260906164043 89 169 1.0 5.0 0.00 0.07 0.00 45 1017.3
20260906163045 88 186 2.0 4.0 0.00 0.07 0.00 47 1017.3
20260906162022 89 195 2.0 5.0 0.00 0.07 0.00 47 1017.3
20260906161029 87 185 1.0 6.0 0.00 0.07 0.00 49 1017.2
20260906160020 86 209 3.0 7.0 0.00 0.07 0.00 52 1017.2
20260906155020 85 202 2.0 6.0 0.00 0.07 0.00 52 1017.2
20260906154019 85 189 3.0 7.0 0.00 0.07 0.00 54 1017.1
20260906153020 84 187 3.0 7.0 0.00 0.08 0.00 55 1017.2
20260906152021 84 210 2.0 5.0 0.00 0.08 0.00 55 1017.2
20260906151041 83 200 1.0 5.0 0.00 0.08 0.00 56 1017.1
20260906150020 82 183 2.0 5.0 0.00 0.09 0.00 57 1017.1
20260906145020 81 193 2.0 5.0 0.00 0.09 0.00 59 1017.0
20260906144019 81 181 2.0 5.0 0.00 0.09 0.00 60 1017.0
20260906143020 80 189 1.0 3.0 0.00 0.09 0.00 61 1016.9
20260906142034 79 168 0.0 3.0 0.00 0.10 0.00 62 1016.9
20260906141041 78 159 0.0 3.0 0.00 0.10 0.00 64 1016.8
20260906140042 77 150 0.0 2.0 0.00 0.10 0.00 65 1016.7
20260906135020 75 167 0.0 2.0 0.00 0.10 0.00 67 1016.7
20260906134023 74 0 0.0 0.0 0.00 0.10 0.00 69 1016.6
20260906133022 73 0 0.0 0.0 0.00 0.10 0.00 70 1016.4
20260906132025 71 0 0.0 0.0 0.00 0.10 0.00 72 1016.3
20260906131021 70 0 0.0 0.0 0.00 0.10 0.00 74 1016.3
20260906130044 69 0 0.0 0.0 0.00 0.10 0.00 76 1016.3
20260906125024 69 0 0.0 0.0 0.00 0.10 0.00 77 1016.3
20260906124022 69 0 0.0 0.0 0.00 0.10 0.00 76 1016.1
20260906123021 69 216 0.0 2.0 0.00 0.10 0.00 77 1015.9
20260906122039 69 182 1.0 3.0 0.00 0.10 0.00 77 1015.9
20260906121024 69 204 0.0 2.0 0.00 0.10 0.00 77 1015.9
20260906120019 69 214 0.0 2.0 0.00 0.10 0.00 77 1015.9
20260906115024 69 199 0.0 1.0 0.00 0.10 0.00 77 1015.9
20260906114039 69 0 0.0 0.0 0.00 0.10 0.00 76 1015.9
20260906113024 69 308 0.0 1.0 0.00 0.10 0.00 76 1015.9
20260906112020 69 0 0.0 0.0 0.00 0.10 0.00 75 1015.8
20260906111022 69 0 0.0 0.0 0.00 0.10 0.00 75 1015.8
20260906110041 69 0 0.0 0.0 0.00 0.10 0.00 75 1015.8
20260906105020 69 0 0.0 0.0 0.00 0.10 0.00 74 1015.8
20260906104040 70 0 0.0 0.0 0.00 0.10 0.00 73 1015.7
20260906103044 70 0 0.0 0.0 0.00 0.10 0.00 72 1015.6
20260906102021 70 0 0.0 0.0 0.00 0.10 0.00 72 1015.5
20260906101020 71 0 0.0 0.0 0.00 0.10 0.00 70 1015.4
20260906100023 71 0 0.0 0.0 0.00 0.10 0.00 70 1015.3
20260906095022 71 0 0.0 0.0 0.00 0.10 0.00 69 1015.2
20260906094023 72 205 0.0 1.0 0.00 0.10 0.00 70 1015.1
20260906093023 72 318 2.0 5.0 0.00 0.10 0.00 67 1015.2
20260906092023 73 259 0.0 2.0 0.00 0.10 0.00 67 1015.1
20260906091019 74 193 1.0 3.0 0.00 0.10 0.00 67 1015.1
20260906090019 74 188 1.0 3.0 0.00 0.10 0.00 67 1015.1
20260906085020 74 192 1.0 3.0 0.00 0.10 0.00 66 1015.2
20260906084019 74 206 0.0 2.0 0.00 0.10 0.00 65 1015.1
20260906083021 74 191 1.0 4.0 0.00 0.10 0.00 65 1015.0
20260906082024 74 203 1.0 2.0 0.00 0.10 0.00 64 1015.2
20260906081021 75 220 0.0 1.0 0.00 0.10 0.00 63 1015.3
20260906080021 75 213 0.0 2.0 0.00 0.10 0.00 61 1015.3
20260906075020 76 205 0.0 2.0 0.00 0.10 0.00 61 1015.3
20260906074028 76 199 1.0 3.0 0.00 0.10 0.00 60 1015.3
20260906073048 75 182 3.0 6.0 0.00 0.10 0.00 61 1015.2
20260906072024 75 182 1.0 4.0 0.00 0.10 0.00 61 1015.2
20260906071023 76 231 0.0 2.0 0.00 0.10 0.00 59 1015.2
20260906070021 76 192 0.0 1.0 0.00 0.10 0.00 58 1015.3
20260906065104 77 204 0.0 2.0 0.00 0.10 0.00 56 1015.3
20260906064020 78 157 0.0 2.0 0.00 0.10 0.00 54 1015.4
20260906063021 78 186 2.0 5.0 0.00 0.10 0.00 53 1015.5
20260906062031 79 181 3.0 5.0 0.00 0.10 0.00 53 1015.5
20260906061021 79 180 3.0 5.0 0.00 0.10 0.00 52 1015.4
20260906060027 79 185 3.0 4.0 0.00 0.10 0.00 52 1015.5
20260906055020 79 178 1.0 4.0 0.00 0.10 0.00 53 1015.5
20260906054059 79 177 1.0 4.0 0.00 0.10 0.00 52 1015.4
20260906053019 79 179 1.0 4.0 0.00 0.10 0.00 52 1015.5
20260906052023 79 187 1.0 4.0 0.00 0.10 0.00 51 1015.5
20260906051019 79 181 0.0 4.0 0.00 0.10 0.00 51 1015.6
20260906050022 79 188 1.0 3.0 0.00 0.10 0.00 50 1015.7
20260906045109 79 182 1.0 4.0 0.00 0.10 0.10 51 1015.6
20260906044019 80 188 0.0 2.0 0.00 0.10 0.10 51 1015.4
20260906043020 80 0 0.0 0.0 0.00 0.10 0.10 50 1015.3
20260906042022 81 194 0.0 2.0 0.00 0.10 0.10 48 1015.3
20260906041020 82 341 0.0 1.0 0.00 0.12 0.10 48 1015.4
20260906040022 82 171 0.0 5.0 0.00 0.13 0.10 47 1015.2
20260906035021 82 188 1.0 4.0 0.00 0.14 0.10 46 1015.2
20260906034021 82 187 1.0 4.0 0.00 0.15 0.10 46 1015.1
20260906033021 82 211 0.0 2.0 0.00 0.16 0.10 45 1014.9
20260906032022 83 351 0.0 2.0 0.00 0.17 0.10 45 1014.8
20260906031021 83 192 0.0 2.0 0.00 0.20 0.10 44 1014.7
20260906030026 84 184 0.0 2.0 0.00 0.23 0.10 43 1014.7
20260906025024 84 190 0.0 2.0 0.00 0.26 0.10 42 1014.4
20260906024018 85 191 0.0 2.0 0.00 0.28 0.10 41 1014.2
20260906023019 86 70 0.0 1.0 0.00 0.32 0.10 40 1014.1
20260906022022 87 82 0.0 1.0 0.00 0.34 0.10 39 1013.9
20260906021020 87 76 0.0 1.0 0.00 0.34 0.10 39 1013.9
20260906020025 88 99 0.0 1.0 0.00 0.34 0.10 38 1013.7
20260906015020 88 104 0.0 2.0 0.00 0.35 0.10 38 1013.6
20260906014021 89 219 0.0 1.0 0.00 0.36 0.10 37 1013.5
20260906013019 89 10 0.0 2.0 0.00 0.36 0.10 36 1013.4
20260906012027 90 176 0.0 2.0 0.00 0.36 0.10 35 1013.3
20260906011019 91 98 0.0 4.0 0.00 0.36 0.10 34 1013.2
20260906010040 92 115 0.0 3.0 0.00 0.36 0.10 33 1013.1
20260906005024 94 153 0.0 2.0 0.00 0.36 0.10 32 1013.0
20260906004028 95 175 1.0 4.0 0.00 0.36 0.10 30 1012.9
20260906003023 95 118 1.0 3.0 0.00 0.36 0.10 30 1012.9
20260906002021 96 178 1.0 4.0 0.00 0.36 0.10 30 1012.9
20260906001020 96 123 1.0 4.0 0.00 0.36 0.10 29 1012.7
20260906000027 96 122 1.0 3.0 0.00 0.36 0.10 29 1012.8
20260905235021 96 118 3.0 5.0 0.00 0.36 0.10 29 1012.6
20260905234040 97 121 2.0 4.0 0.00 0.36 0.10 29 1012.5
20260905233021 98 167 1.0 7.0 0.00 0.36 0.10 29 1012.5
20260905232020 98 119 1.0 3.0 0.00 0.36 0.10 29 1012.4